User: anonymous   Login
Location: Hyderabad
(17.3833°N, 78.4667°E)
Time: 17:42:46
(UTC+05:30)
Language:

H-2A R/B - Orbit

View from above orbital plane
View from above orbital plane
View from above satellite
View from above satellite

Ground track
Ground track

The orbit data is extracted from the following two-line orbital elements,

1 26899U 01038B   17348.14240936 +.00001355 +00000-0 +44597-3 0  9994
2 26899 028.4589 352.3740 7120692 306.8764 006.9567 02.48307717140958
Epoch (UTC): 14 December 2017 03:25:04
Eccentricity: 0.7120692
inclination: 28.4589°
perigee height: 254 km
apogee height: 33061 km
right ascension of ascending node: 352.3740°
argument of perigee: 306.8764°
revolutions per day: 2.48307717
mean anomaly at epoch: 6.9567°
orbit number at epoch: 14095

The dashed part of the orbit path shows where the satellite is in the earth's shadow,  

DLR